Brainerd, MN

7:43 PM CST on February 10, 2016 (GMT -0600)
Brainerd-Crow Wing County Regional

Weather History for KBRD - April, 2014

Change the Weather History Date:

Friday, April 25, 2014

  Actual Average Record
Temperature  
Mean Temperature 46 °F -  
Max Temperature 55 °F 59 °F 85 °F (1962)
Min Temperature 39 °F 33 °F 22 °F (1967)
Degree Days  
Heating Degree Days 18    
Moisture  
Dew Point 35 °F    
Average Humidity 73    
Maximum Humidity 87    
Minimum Humidity 40    
Precipitation  
Precipitation 0.00 in - - ()
Sea Level Pressure  
Sea Level Pressure 29.77 in    
Wind  
Wind Speed 7 mph (WNW)    
Max Wind Speed 13 mph    
Max Gust Speed -    
Visibility 5 miles    
Events Fog , Rain    
Averages and records for this station are not official NWS values.
T = Trace of Precipitation, MM = Missing Value Source: NWS Daily Summary

Daily Weather History Graph

Daily Weather History Graph

Search for Another Location

Airport or City:

Trip Planner

Search our weather history database for the weather conditions in past years. The results will help you decide how hot, cold, wet, or windy it might be!

Date:

Astronomy

Apr. 25, 2014 Rise Set
Actual Time 6:12 AM CDT 8:17 PM CDT
Civil Twilight 5:39 AM CDT 8:50 PM CDT
Nautical Twilight 4:59 AM CDT 9:30 PM CDT
Astronomical Twilight 4:14 AM CDT 10:16 PM CDT
Moon 4:15 AM CDT (4/25) 4:28 PM CDT (4/25)
Length of Visible Light 15h 10m
Length of Day
14h 05m
Waning Crescent, 15% of the Moon is Illuminated
Apr 25
Waning Crescent
Apr 29
New
May 6
First Quarter
May 14
Full
May 21
Last Quarter

Hourly Weather History & Observations

Time (CDT) Temp. Windchill Dew Point Humidity Pressure Visibility Wind Dir Wind Speed Gust Speed Precip Events Conditions
12:39 AM 39.0 °F 34.8 °F 34.0 °F 82% 29.70 in 0.5 mi West 5.8 mph - N/A   Haze
12:53 AM 39.0 °F 34.8 °F 34.0 °F 82% 29.74 in 0.5 mi NW 5.8 mph - N/A   Haze
1:08 AM 39.0 °F 34.8 °F 34.0 °F 82% 29.70 in 1.2 mi WNW 5.8 mph - N/A   Haze
1:25 AM 39.0 °F 34.8 °F 34.0 °F 82% 29.71 in 0.5 mi West 5.8 mph - N/A   Haze
1:53 AM 39.0 °F 36.8 °F 35.1 °F 86% 29.74 in 0.5 mi West 3.5 mph - N/A Fog Fog
2:18 AM 39.0 °F 35.7 °F 35.1 °F 86% 29.69 in 0.2 mi SSW 4.6 mph - N/A Fog Fog
2:46 AM 39.0 °F 36.8 °F 35.1 °F 86% 29.68 in 0.5 mi WSW 3.5 mph - N/A Fog Fog
2:53 AM 39.9 °F 37.8 °F 35.1 °F 83% 29.71 in 0.5 mi WSW 3.5 mph - N/A   Haze
3:17 AM 39.9 °F - 35.1 °F 83% 29.69 in 1.0 mi Calm Calm - N/A   Haze
3:30 AM 39.9 °F 36.7 °F 35.1 °F 83% 29.68 in 0.8 mi SW 4.6 mph - N/A   Haze
3:46 AM 39.9 °F 35.8 °F 35.1 °F 83% 29.68 in 0.2 mi West 5.8 mph - N/A   Haze
3:53 AM 39.9 °F 35.8 °F 35.1 °F 83% 29.71 in 0.5 mi WSW 5.8 mph - N/A   Haze
4:50 AM 39.2 °F 34.2 °F 35.6 °F 87% 29.69 in 1.0 mi West 6.9 mph - N/A   Overcast
4:53 AM 39.9 °F 35.8 °F 36.0 °F 86% 29.73 in 1.0 mi West 5.8 mph - N/A   Overcast
5:00 AM 39.9 °F 35.8 °F 36.0 °F 86% 29.69 in 0.8 mi West 5.8 mph - N/A   Overcast
5:31 AM 41.0 °F 35.8 °F 36.0 °F 82% 29.70 in 1.5 mi West 8.1 mph - N/A   Haze
5:46 AM 41.0 °F 35.8 °F 36.0 °F 82% 29.70 in 1.2 mi WNW 8.1 mph - N/A   Haze
5:53 AM 41.0 °F 34.7 °F 36.0 °F 82% 29.73 in 1.8 mi WNW 10.4 mph - N/A   Haze
5:59 AM 41.0 °F 35.2 °F 36.0 °F 82% 29.70 in 3.0 mi West 9.2 mph - N/A   Haze
6:22 AM 41.0 °F 35.2 °F 36.0 °F 82% 29.71 in 5.0 mi WNW 9.2 mph - N/A   Haze
6:38 AM 41.0 °F 34.7 °F 36.0 °F 82% 29.71 in 6.0 mi WNW 10.4 mph - N/A   Haze
6:53 AM 42.1 °F 36.1 °F 36.0 °F 79% 29.75 in 6.0 mi WNW 10.4 mph - N/A   Haze
7:03 AM 42.1 °F 36.6 °F 36.0 °F 79% 29.72 in 2.5 mi WNW 9.2 mph - N/A   Haze
7:13 AM 42.1 °F 36.6 °F 36.0 °F 79% 29.72 in 1.5 mi WNW 9.2 mph - N/A   Haze
7:26 AM 42.1 °F 37.1 °F 37.0 °F 82% 29.73 in 2.5 mi WNW 8.1 mph - N/A   Haze
7:49 AM 42.8 °F 37.5 °F 37.4 °F 81% 29.73 in 4.0 mi NW 9.2 mph - N/A   Haze
7:53 AM 43.0 °F 38.2 °F 37.0 °F 80% 29.76 in 4.0 mi NW 8.1 mph - N/A   Haze
8:53 AM 43.0 °F 37.7 °F 37.0 °F 80% 29.78 in 6.0 mi NW 9.2 mph - N/A   Haze
9:53 AM 44.1 °F 39.0 °F 37.0 °F 76% 29.79 in 10.0 mi NNW 9.2 mph - N/A   Overcast
10:13 AM 44.1 °F 38.1 °F 36.0 °F 73% 29.76 in 10.0 mi NNW 11.5 mph - N/A   Overcast
10:37 AM 44.1 °F 37.7 °F 36.0 °F 73% 29.77 in 10.0 mi NNW 12.7 mph - N/A   Overcast
10:46 AM 44.1 °F 38.1 °F 35.1 °F 71% 29.77 in 10.0 mi NNW 11.5 mph - N/A   Overcast
10:53 AM 44.1 °F 38.6 °F 35.1 °F 71% 29.81 in 10.0 mi NNW 10.4 mph - N/A   Overcast
11:18 AM 44.1 °F 38.6 °F 34.0 °F 68% 29.78 in 10.0 mi NW 10.4 mph - N/A   Overcast
11:53 AM 43.0 °F 38.2 °F 34.0 °F 71% 29.82 in 10.0 mi WNW 8.1 mph - 0.00 in Rain Light Rain
12:48 PM 46.4 °F 42.4 °F 35.6 °F 66% 29.80 in 10.0 mi NW 8.1 mph - 0.00 in   Overcast
12:53 PM 46.0 °F 41.0 °F 34.0 °F 63% 29.83 in 10.0 mi WNW 10.4 mph - 0.00 in   Overcast
1:53 PM 48.9 °F - 35.1 °F 59% 29.84 in 10.0 mi NW 11.5 mph - N/A   Overcast
2:53 PM 53.1 °F - 35.1 °F 50% 29.84 in 10.0 mi West 11.5 mph - N/A   Mostly Cloudy
3:53 PM 54.0 °F - 34.0 °F 47% 29.84 in 10.0 mi North 12.7 mph - N/A   Scattered Clouds
4:53 PM 54.0 °F - 32.0 °F 43% 29.86 in 10.0 mi North 12.7 mph - N/A   Clear
5:53 PM 54.0 °F - 30.0 °F 40% 29.86 in 10.0 mi North 11.5 mph - N/A   Clear
6:53 PM 52.0 °F - 28.0 °F 40% 29.88 in 10.0 mi North 11.5 mph - N/A   Clear
7:53 PM 50.0 °F - 30.0 °F 46% 29.90 in 10.0 mi NNE 9.2 mph - N/A   Clear
8:53 PM 45.0 °F 40.6 °F 30.0 °F 56% 29.94 in 10.0 mi NNE 8.1 mph - N/A   Clear
9:53 PM 43.0 °F 38.8 °F 30.0 °F 60% 29.96 in 10.0 mi NNE 6.9 mph - N/A   Clear
10:53 PM 39.9 °F 35.8 °F 30.0 °F 68% 29.98 in 10.0 mi NE 5.8 mph - N/A   Clear
11:53 PM 39.9 °F - 30.0 °F 68% 29.98 in 10.0 mi Calm Calm - N/A   Clear